Regional Weather Roundup
Issued by NWS Raleigh/Durham, NC

Home | Current Version | Previous Version | Text Only | Print | Product List | Glossary On
Versions: 1 2 3 4 5 6 7 8 9 10 11 12 13 14 15 16 17 18 19 20 21 22 23 24 25 26 27 28 29 30 31 32 33 34 35 36 37 38 39 40 41 42 43 44 45 46 47 48 49 50
404
ASUS42 KRAH 281810
RWRRAH
NORTH CAROLINA WEATHER ROUNDUP
NATIONAL WEATHER SERVICE RALEIGH NC
200 PM EDT SAT MAY 28 2016

NOTE: "FAIR" INDICATES FEW OR NO CLOUDS BELOW 12,000 FEET WITH NO
SIGNIFICANT WEATHER AND/OR OBSTRUCTIONS TO VISIBILITY.

NCZ001-053-055-056-065-067-281900-
WESTERN NORTH CAROLINA

CITY           SKY/WX    TMP DP  RH WIND       PRES   REMARKS
ASHEVILLE      SUNNY     79  49  34 VRB7      30.22F
JEFFERSON      SUNNY     72  55  53 CALM      30.27F
MORGANTON      MOSUNNY   81  52  36 SE3       30.24F
HICKORY        PTSUNNY   80  56  43 VRB3      30.19F
RUTHERFORDTON  SUNNY     81  54  39 S7        30.18F
MOUNT AIRY     MOSUNNY   81  63  54 SE3       30.21F
BOONE          SUNNY     75  50  41 SW5       30.28F
$$

NCZ021-022-025-041-071-084-088-281900-
CENTRAL NORTH CAROLINA

CITY           SKY/WX    TMP DP  RH WIND       PRES   REMARKS
CHARLOTTE      PTSUNNY   82  54  37 E6        30.17F
GREENSBORO     PTSUNNY   81  55  40 E12       30.18F
WINSTON-SALEM  MOSUNNY   82  59  45 SE6       30.19F
RALEIGH-DURHAM MOSUNNY   83  50  31 CALM      30.18F
FORT BRAGG     SUNNY     84  61  45 N7        30.14F
FAYETTEVILLE   SUNNY     86  60  41 VRB6      30.14F
BURLINGTON     SUNNY     83  57  41 E8        30.17F
LAURINBURG     CLOUDY    85  60  42 E8        30.15F
$$

NCZ011-015-027-028-043-044-047-080-103-281900-
NORTHEASTERN NORTH CAROLINA

CITY           SKY/WX    TMP DP  RH WIND       PRES   REMARKS
ROCKY MT-WILSO MOSUNNY   85  62  46 MISG      30.17F
GREENVILLE     MOSUNNY   86  63  45 SE3       30.18F
WASHINGTON     PTSUNNY   83  67  56 SE5       30.17F
ELIZABETH CITY SUNNY     82  66  58 E12       30.20F
MANTEO         NOT AVBL
CAPE HATTERAS  SUNNY     85  69  58 SE12      30.18F
$$

NCZ078-087-090-091-093-098-101-281900-
SOUTHEASTERN NORTH CAROLINA

CITY           SKY/WX    TMP DP  RH WIND       PRES   REMARKS
LUMBERTON      CLOUDY    88  62  41 E7        30.13F
GOLDSBORO      MOSUNNY   88  63  42 VRB6      30.13F
KINSTON        MOSUNNY   82  63  51 E6        30.17F
KENANSVILLE    CLOUDY    82  62  51 E3        30.16F
NEW BERN       PTSUNNY   83  66  56 E10       30.17F
CHERRY POINT   PTSUNNY   83  66  56 E13       30.17F
BEAUFORT       MOSUNNY   81  69  67 E14       30.16F
JACKSONVILLE   PTSUNNY   83  65  54 E14G21    30.15F
WILMINGTON     PTSUNNY   80  65  59 E15G24    30.14F
$$





USA.gov is the U.S. government's official web portal to all federal, state and local government web resources and services.